"read_dt","SO2 (ppb)","flags","PMT voltage (V)","lamp voltage (V)","lamp intensity (Hz)","internal temp (C)","react chamber temp (C)","sample flow (l/min)","pres (mmHg)","SO2 bkg (ppb)","SO2 coefficient"
2018-08-28 00:00:00,-2.763E-01,4C000000*,-702.3,964.192,91,28.4,45.2,0.408,738.4,2.1,1.050*
2018-08-28 00:01:00,-3.021E-01,4C000000*,-702.3,962.575,90,28.4,44.9,0.408,738.1,2.1,1.050*
2018-08-28 00:02:00,-2.978E-01,4C000000*,-702.6,962.979,91,28.4,45.1,0.408,738.4,2.1,1.050*
2018-08-28 00:03:00,-3.701E-01,4C000000*,-703.0,962.575,89,28.4,44.9,0.408,738.1,2.1,1.050*
2018-08-28 00:04:00,-3.741E-01,4C000000*,-702.6,963.788,89,28.4,44.9,0.409,738.4,2.1,1.050*
2018-08-28 00:05:00,-3.002E-01,4C000000*,-702.6,962.979,89,28.5,45.1,0.408,738.1,2.1,1.050*
2018-08-28 00:06:00,-2.985E-01,4C000000*,-702.6,962.171,90,28.5,44.9,0.409,738.4,2.1,1.050*
2018-08-28 00:07:00,-2.757E-01,4C000000*,-702.6,961.767,89,28.5,45.1,0.409,738.1,2.1,1.050*
2018-08-28 00:08:00,-3.480E-01,4C000000*,-702.6,961.767,89,28.5,44.8,0.408,738.4,2.1,1.050*
2018-08-28 00:09:00,-3.645E-01,4C000000*,-702.6,962.979,90,28.5,45.0,0.409,738.4,2.1,1.050*
2018-08-28 00:10:00,-2.586E-01,4C000000*,-703.0,962.575,91,28.5,44.9,0.408,738.1,2.1,1.050*
2018-08-28 00:11:00,-3.726E-01,4C000000*,-702.6,963.384,89,28.5,45.0,0.408,738.4,2.1,1.050*
2018-08-28 00:12:00,-3.068E-01,4C000000*,-702.6,963.384,90,28.5,45.1,0.408,738.1,2.1,1.050*
2018-08-28 00:13:00,-2.968E-01,4C000000*,-702.6,963.788,91,28.5,44.9,0.408,738.4,2.1,1.050*
2018-08-28 00:14:00,-3.194E-01,4C000000*,-702.6,963.788,91,28.5,45.0,0.408,738.4,2.1,1.050*
2018-08-28 00:15:00,-2.447E-01,4C000000*,-702.6,962.575,88,28.5,44.8,0.408,738.1,2.1,1.050*
2018-08-28 00:16:00,-2.944E-01,4C000000*,-703.0,962.979,91,28.6,45.1,0.408,738.4,2.1,1.050*
2018-08-28 00:17:00,-3.114E-01,4C000000*,-702.6,962.575,90,28.5,44.8,0.408,738.1,2.1,1.050*
2018-08-28 00:18:00,-3.875E-01,4C000000*,-702.6,962.575,89,28.5,45.0,0.409,738.4,2.1,1.050*
2018-08-28 00:19:00,-3.615E-01,4C000000*,-702.6,962.979,91,28.6,45.0,0.408,738.1,2.1,1.050*
2018-08-28 00:20:00,-2.699E-01,4C000000*,-703.0,963.384,90,28.5,44.9,0.408,738.1,2.1,1.050*
2018-08-28 00:21:00,-2.558E-01,4C000000*,-702.6,962.979,88,28.5,45.1,0.408,738.1,2.1,1.050*
2018-08-28 00:22:00,-3.431E-01,4C000000*,-703.0,962.575,89,28.5,44.9,0.409,738.1,2.1,1.050*
2018-08-28 00:23:00,-3.054E-01,4C000000*,-702.6,963.384,91,28.5,45.2,0.408,738.1,2.1,1.050*
2018-08-28 00:24:00,-3.360E-01,4C000000*,-702.3,962.575,90,28.5,44.8,0.408,738.1,2.1,1.050*
2018-08-28 00:25:00,-2.963E-01,4C000000*,-703.0,962.575,90,28.5,45.1,0.408,738.4,2.1,1.050*
2018-08-28 00:26:00,-3.029E-01,4C000000*,-703.0,962.575,89,28.5,45.0,0.408,738.1,2.1,1.050*
2018-08-28 00:27:00,-2.500E-01,4C000000*,-702.6,962.979,89,28.6,45.0,0.408,738.4,2.1,1.050*
2018-08-28 00:28:00,-2.851E-01,4C000000*,-703.0,962.979,90,28.5,45.1,0.408,738.1,2.1,1.050*
2018-08-28 00:29:00,-2.845E-01,4C000000*,-702.6,962.979,89,28.5,44.9,0.408,738.4,2.1,1.050*
2018-08-28 00:30:00,-3.343E-01,4C000000*,-702.6,962.575,91,28.6,45.2,0.408,738.1,2.1,1.050*
2018-08-28 00:31:00,-3.317E-01,4C000000*,-703.0,962.575,88,28.6,44.8,0.408,738.4,2.1,1.050*
2018-08-28 00:32:00,-2.728E-01,4C000000*,-702.6,963.384,90,28.6,45.0,0.408,738.4,2.1,1.050*
2018-08-28 00:33:00,-3.805E-01,4C000000*,-702.6,962.979,89,28.5,44.8,0.408,738.4,2.1,1.050*
2018-08-28 00:34:00,-3.453E-01,4C000000*,-702.3,963.384,91,28.6,45.0,0.408,738.1,2.1,1.050*
2018-08-28 00:35:00,-3.062E-01,4C000000*,-702.6,962.979,90,28.6,45.1,0.408,738.1,2.1,1.050*
2018-08-28 00:36:00,-2.725E-01,4C000000*,-703.0,963.384,91,28.6,44.9,0.409,738.1,2.1,1.050*
2018-08-28 00:37:00,-2.530E-01,4C000000*,-702.6,962.575,90,28.6,45.1,0.408,738.1,2.1,1.050*
2018-08-28 00:38:00,-2.934E-01,4C000000*,-702.6,962.979,89,28.7,44.8,0.408,738.4,2.1,1.050*
2018-08-28 00:39:00,-3.069E-01,4C000000*,-702.6,963.788,91,28.7,45.1,0.408,738.1,2.1,1.050*
2018-08-28 00:40:00,-3.062E-01,4C000000*,-702.6,962.979,90,28.7,44.9,0.408,738.4,2.1,1.050*
2018-08-28 00:41:00,-2.881E-01,4C000000*,-703.0,962.979,91,28.6,45.0,0.409,738.1,2.1,1.050*
2018-08-28 00:42:00,-3.296E-01,4C000000*,-703.0,963.384,91,28.6,45.0,0.409,738.1,2.1,1.050*
2018-08-28 00:43:00,-3.596E-01,4C000000*,-703.0,962.171,89,28.6,44.9,0.408,738.4,2.1,1.050*
2018-08-28 00:44:00,-3.482E-01,4C000000*,-702.3,962.979,88,28.7,45.1,0.408,738.1,2.1,1.050*
2018-08-28 00:45:00,-3.726E-01,4C000000*,-702.6,962.575,90,28.7,44.8,0.409,738.1,2.1,1.050*
2018-08-28 00:46:00,-2.577E-01,4C000000*,-702.6,962.979,90,28.6,45.2,0.408,738.1,2.1,1.050*
2018-08-28 00:47:00,-3.789E-01,4C000000*,-702.6,962.171,90,28.6,44.8,0.408,738.1,2.1,1.050*
2018-08-28 00:48:00,-1.903E-01,4C000000*,-702.6,962.979,89,28.7,45.1,0.408,738.1,2.1,1.050*
2018-08-28 00:49:00,-2.704E-01,4C000000*,-703.0,962.979,90,28.6,44.9,0.409,738.1,2.1,1.050*
2018-08-28 00:50:00,-3.899E-01,4C000000*,-702.6,961.767,89,28.7,45.0,0.409,738.1,2.1,1.050*
2018-08-28 00:51:00,-3.981E-01,4C000000*,-703.0,962.575,90,28.7,45.1,0.408,738.1,2.1,1.050*
2018-08-28 00:52:00,-3.998E-01,4C000000*,-702.6,962.171,89,28.7,44.9,0.409,738.1,2.1,1.050*
2018-08-28 00:53:00,-3.553E-01,4C000000*,-703.0,963.384,90,28.7,45.2,0.408,738.1,2.1,1.050*
2018-08-28 00:54:00,-3.731E-01,4C000000*,-703.0,962.575,89,28.7,44.8,0.408,738.1,2.1,1.050*
2018-08-28 00:55:00,-2.982E-01,4C000000*,-702.6,962.171,90,28.7,45.0,0.408,738.1,2.1,1.050*
2018-08-28 00:56:00,-2.576E-01,4C000000*,-702.6,962.575,91,28.7,44.9,0.409,738.1,2.1,1.050*
2018-08-28 00:57:00,-2.056E-01,4C000000*,-703.0,961.767,89,28.8,45.0,0.408,738.1,2.1,1.050*
2018-08-28 00:58:00,-3.054E-01,4C000000*,-703.0,962.979,90,28.7,45.1,0.408,738.1,2.1,1.050*
2018-08-28 00:59:00,-2.978E-01,4C000000*,-702.6,963.384,90,28.7,44.9,0.408,738.1,2.1,1.050*
2018-08-28 01:00:00,-3.187E-01,4C000000*,-703.0,964.192,91,28.8,45.1,0.408,738.1,2.1,1.050*
2018-08-28 01:01:00,-3.359E-01,4C000000*,-702.6,962.979,89,28.7,44.8,0.408,738.1,2.1,1.050*
2018-08-28 01:02:00,-3.448E-01,4C000000*,-703.0,962.171,90,28.8,45.1,0.408,738.1,2.1,1.050*
2018-08-28 01:03:00,-3.234E-01,4C000000*,-702.6,962.575,91,28.7,44.9,0.408,738.1,2.1,1.050*
2018-08-28 01:04:00,-3.150E-01,4C000000*,-702.6,963.384,91,28.7,45.0,0.408,738.1,2.1,1.050*
2018-08-28 01:05:00,-3.814E-01,4C000000*,-702.6,961.767,89,28.8,45.0,0.408,737.8,2.1,1.050*
2018-08-28 01:06:00,-3.732E-01,4C000000*,-703.0,963.384,91,28.8,44.9,0.408,738.1,2.1,1.050*
2018-08-28 01:07:00,-3.022E-01,4C000000*,-702.6,963.788,90,28.8,45.1,0.408,738.1,2.1,1.050*
2018-08-28 01:08:00,-3.560E-01,4C000000*,-703.0,962.575,90,28.9,44.8,0.408,738.1,2.1,1.050*
2018-08-28 01:09:00,-2.680E-01,4C000000*,-703.0,963.384,90,28.8,45.2,0.408,738.1,2.1,1.050*
2018-08-28 01:10:00,-3.644E-01,4C000000*,-702.6,962.979,90,28.7,44.8,0.408,737.8,2.1,1.050*
2018-08-28 01:11:00,-2.906E-01,4C000000*,-702.6,962.171,90,28.8,45.0,0.408,738.1,2.1,1.050*
2018-08-28 01:12:00,-2.761E-01,4C000000*,-702.6,962.171,91,28.8,44.9,0.408,737.8,2.1,1.050*
2018-08-28 01:13:00,-3.617E-01,4C000000*,-702.6,963.384,91,28.8,44.9,0.408,738.1,2.1,1.050*
2018-08-28 01:14:00,-3.421E-01,4C000000*,-703.0,963.384,89,28.8,45.1,0.408,738.1,2.1,1.050*
2018-08-28 01:15:00,-2.754E-01,4C000000*,-702.6,963.384,90,28.9,44.9,0.408,738.1,2.1,1.050*
2018-08-28 01:16:00,-2.725E-01,4C000000*,-703.0,963.384,90,28.8,45.2,0.408,737.8,2.1,1.050*
2018-08-28 01:17:00,-3.875E-01,4C000000*,-702.6,963.384,89,28.8,44.8,0.408,738.1,2.1,1.050*
2018-08-28 01:18:00,-4.183E-01,4C000000*,-702.6,962.575,90,28.8,45.0,0.408,738.1,2.1,1.050*
2018-08-28 01:19:00,-3.096E-01,4C000000*,-702.6,963.788,90,28.8,44.9,0.408,737.8,2.1,1.050*
2018-08-28 01:20:00,-3.174E-01,4C000000*,-702.6,963.384,89,28.9,45.0,0.408,738.1,2.1,1.050*
2018-08-28 01:21:00,-4.248E-01,4C000000*,-702.6,963.384,90,28.9,45.1,0.409,737.8,2.1,1.050*
2018-08-28 01:22:00,-3.675E-01,4C000000*,-702.6,963.384,90,28.8,44.8,0.408,737.8,2.1,1.050*
2018-08-28 01:23:00,-3.935E-01,4C000000*,-703.0,962.171,90,28.9,45.2,0.408,738.1,2.1,1.050*
2018-08-28 01:24:00,-2.701E-01,4C000000*,-702.6,963.384,90,28.9,44.8,0.408,738.1,2.1,1.050*
2018-08-28 01:25:00,-3.047E-01,4C000000*,-702.6,962.575,90,28.9,45.1,0.408,738.1,2.1,1.050*
2018-08-28 01:26:00,-4.030E-01,4C000000*,-702.6,963.384,91,28.9,44.9,0.408,737.8,2.1,1.050*
2018-08-28 01:27:00,-3.046E-01,4C000000*,-703.0,962.575,91,28.9,45.0,0.408,737.8,2.1,1.050*
2018-08-28 01:28:00,-3.895E-01,4C000000*,-702.6,961.767,89,28.9,45.0,0.409,737.8,2.1,1.050*
2018-08-28 01:29:00,-3.545E-01,4C000000*,-702.3,961.767,90,28.9,44.9,0.408,737.8,2.1,1.050*
2018-08-28 01:30:00,-3.413E-01,4C000000*,-703.0,961.767,89,29.0,45.1,0.408,737.8,2.1,1.050*
2018-08-28 01:31:00,-2.617E-01,4C000000*,-703.0,962.979,90,29.0,44.9,0.408,738.1,2.1,1.050*
2018-08-28 01:32:00,-2.322E-01,4C000000*,-703.0,962.171,88,28.9,45.2,0.408,738.1,2.1,1.050*
2018-08-28 01:33:00,-3.264E-01,4C000000*,-702.6,962.171,90,29.0,44.8,0.408,738.1,2.1,1.050*
2018-08-28 01:34:00,-2.910E-01,4C000000*,-703.4,961.767,89,28.9,45.0,0.408,738.1,2.1,1.050*
2018-08-28 01:35:00,-3.323E-01,4C000000*,-703.0,960.958,88,29.0,45.0,0.408,737.8,2.1,1.050*
2018-08-28 01:36:00,-3.707E-01,4C000000*,-702.3,962.575,90,29.0,45.0,0.408,738.1,2.1,1.050*
2018-08-28 01:37:00,-3.259E-01,4C000000*,-702.3,962.171,90,29.0,45.0,0.408,737.8,2.1,1.050*
2018-08-28 01:38:00,-3.075E-01,4C000000*,-702.6,962.575,89,29.0,44.8,0.408,737.8,2.1,1.050*
2018-08-28 01:39:00,-3.107E-01,4C000000*,-703.0,961.767,90,29.0,45.2,0.408,737.8,2.1,1.050*
2018-08-28 01:40:00,-2.657E-01,4C000000*,-702.3,962.575,90,29.0,44.9,0.409,737.8,2.1,1.050*
2018-08-28 01:41:00,-3.320E-01,4C000000*,-703.0,961.362,90,29.0,45.0,0.408,738.1,2.1,1.050*
2018-08-28 01:42:00,-3.507E-01,4C000000*,-702.6,960.958,89,29.0,45.0,0.409,737.8,2.1,1.050*
2018-08-28 01:43:00,-2.764E-01,4C000000*,-702.6,961.362,91,29.0,44.9,0.408,738.1,2.1,1.050*
2018-08-28 01:44:00,-2.735E-01,4C000000*,-702.6,962.575,89,29.1,45.1,0.408,737.8,2.1,1.050*
2018-08-28 01:45:00,-2.655E-01,4C000000*,-702.3,961.767,90,29.1,44.9,0.408,737.8,2.1,1.050*
2018-08-28 01:46:00,-3.131E-01,4C000000*,-703.0,961.767,91,29.1,45.2,0.409,737.8,2.1,1.050*
2018-08-28 01:47:00,-3.458E-01,4C000000*,-702.6,962.171,89,29.1,44.8,0.408,737.8,2.1,1.050*
2018-08-28 01:48:00,-3.006E-01,4C000000*,-701.9,962.171,89,29.1,45.1,0.409,737.8,2.1,1.050*
2018-08-28 01:49:00,-3.305E-01,4C000000*,-703.0,961.767,90,29.1,44.9,0.408,737.8,2.1,1.050*
2018-08-28 01:50:00,-2.418E-01,4C000000*,-703.0,962.171,90,29.1,45.0,0.408,737.8,2.1,1.050*
2018-08-28 01:51:00,-2.636E-01,4C000000*,-702.6,961.767,91,29.1,45.1,0.408,737.8,2.1,1.050*
2018-08-28 01:52:00,-2.462E-01,4C000000*,-703.0,961.767,90,29.1,44.9,0.408,738.1,2.1,1.050*
2018-08-28 01:53:00,-2.554E-01,4C000000*,-702.3,960.958,90,29.1,45.1,0.409,737.8,2.1,1.050*
2018-08-28 01:54:00,-3.419E-01,4C000000*,-702.6,962.575,90,29.1,44.8,0.408,738.1,2.1,1.050*
2018-08-28 01:55:00,-3.255E-01,4C000000*,-702.6,960.958,88,29.1,45.2,0.409,738.1,2.1,1.050*
2018-08-28 01:56:00,-3.220E-01,4C000000*,-702.6,961.767,91,29.1,44.8,0.408,737.8,2.1,1.050*
2018-08-28 01:57:00,-3.507E-01,4C000000*,-703.0,961.362,91,29.1,45.0,0.408,737.8,2.1,1.050*
2018-08-28 01:58:00,-3.345E-01,4C000000*,-702.3,962.171,90,29.1,45.0,0.408,737.8,2.1,1.050*
2018-08-28 01:59:00,-2.811E-01,4C000000*,-702.6,962.171,90,29.2,45.0,0.409,737.8,2.1,1.050*
2018-08-28 02:00:00,-3.138E-01,4C000000*,-702.3,962.575,90,29.2,45.0,0.409,737.8,2.1,1.050*
2018-08-28 02:01:00,-2.967E-01,4C000000*,-702.6,961.767,90,29.2,44.8,0.409,738.1,2.1,1.050*
2018-08-28 02:02:00,-3.210E-01,4C000000*,-702.6,962.575,88,29.2,45.2,0.408,737.8,2.1,1.050*
2018-08-28 02:03:00,-2.846E-01,4C000000*,-702.6,962.575,91,29.3,44.9,0.408,737.8,2.1,1.050*
2018-08-28 02:04:00,-2.184E-01,4C000000*,-702.6,962.979,90,29.2,44.9,0.409,738.1,2.1,1.050*
2018-08-28 02:05:00,-3.329E-01,4C000000*,-703.0,964.192,92,29.2,45.1,0.408,737.8,2.1,1.050*
2018-08-28 02:06:00,-3.077E-01,4C000000*,-703.0,961.362,89,29.2,44.8,0.408,737.8,2.1,1.050*
2018-08-28 02:07:00,-3.176E-01,4C000000*,-702.6,963.384,90,29.2,44.9,0.408,737.8,2.1,1.050*
2018-08-28 02:08:00,-2.746E-01,4C000000*,-703.0,961.767,91,29.3,45.1,0.408,737.8,2.1,1.050*
2018-08-28 02:09:00,-3.154E-01,4C000000*,-703.0,961.362,90,29.3,44.9,0.408,737.8,2.1,1.050*
2018-08-28 02:10:00,-2.481E-01,4C000000*,-702.6,962.171,90,29.3,45.1,0.408,737.8,2.1,1.050*
2018-08-28 02:11:00,-2.825E-01,4C000000*,-703.0,961.362,90,29.2,44.9,0.408,737.8,2.1,1.050*
2018-08-28 02:12:00,-2.883E-01,4C000000*,-702.6,961.362,90,29.3,45.1,0.408,737.8,2.1,1.050*
2018-08-28 02:13:00,-3.088E-01,4C000000*,-702.6,961.767,90,29.3,44.8,0.408,737.8,2.1,1.050*
2018-08-28 02:14:00,-3.757E-01,4C000000*,-702.3,962.171,90,29.3,45.0,0.408,737.8,2.1,1.050*
2018-08-28 02:15:00,-3.279E-01,4C000000*,-702.6,962.575,90,29.3,45.1,0.408,737.8,2.1,1.050*
2018-08-28 02:16:00,-2.329E-01,4C000000*,-703.0,961.767,89,29.4,44.9,0.408,737.8,2.1,1.050*
2018-08-28 02:17:00,-3.405E-01,4C000000*,-702.6,961.362,90,29.3,45.1,0.408,737.8,2.1,1.050*
2018-08-28 02:18:00,-3.290E-01,4C000000*,-702.6,962.171,90,29.4,44.9,0.409,738.1,2.1,1.050*
2018-08-28 02:19:00,-2.711E-01,4C000000*,-703.0,962.575,89,29.4,45.2,0.408,737.8,2.1,1.050*
2018-08-28 02:20:00,-3.211E-01,4C000000*,-702.6,963.788,90,29.4,44.8,0.408,737.8,2.1,1.050*
2018-08-28 02:21:00,-3.390E-01,4C000000*,-702.6,962.575,90,29.3,45.0,0.408,737.8,2.1,1.050*
2018-08-28 02:22:00,-3.213E-01,4C000000*,-702.6,962.171,91,29.4,44.9,0.408,737.5,2.1,1.050*
2018-08-28 02:23:00,-3.292E-01,4C000000*,-703.0,962.979,90,29.4,44.9,0.408,737.8,2.1,1.050*
2018-08-28 02:24:00,-1.638E-01,4C000000*,-702.6,961.767,89,29.4,45.1,0.408,737.5,2.1,1.050*
2018-08-28 02:25:00,-2.663E-01,4C000000*,-702.6,961.767,90,29.4,44.9,0.408,737.8,2.1,1.050*
2018-08-28 02:26:00,-2.543E-01,4C000000*,-702.6,961.767,90,29.4,45.2,0.409,737.8,2.1,1.050*
2018-08-28 02:27:00,-2.309E-01,4C000000*,-702.6,962.171,90,29.5,44.9,0.408,737.8,2.1,1.050*
2018-08-28 02:28:00,-3.109E-01,4C000000*,-702.6,961.767,90,29.4,45.0,0.408,737.8,2.1,1.050*
2018-08-28 02:29:00,-3.782E-01,4C000000*,-703.0,960.554,90,29.4,44.9,0.409,737.8,2.1,1.050*
2018-08-28 02:30:00,-3.490E-01,4C000000*,-702.6,961.362,90,29.4,45.0,0.408,737.8,2.1,1.050*
2018-08-28 02:31:00,-2.825E-01,4C000000*,-703.0,962.171,90,29.5,45.1,0.408,737.8,2.1,1.050*
2018-08-28 02:32:00,-2.446E-01,4C000000*,-703.0,961.767,89,29.5,44.9,0.408,737.8,2.1,1.050*
2018-08-28 02:33:00,-2.737E-01,4C000000*,-702.6,961.767,91,29.5,45.2,0.409,737.5,2.1,1.050*
2018-08-28 02:34:00,-1.951E-01,4C000000*,-702.6,960.958,89,29.6,44.8,0.408,737.8,2.1,1.050*
2018-08-28 02:35:00,-2.531E-01,4C000000*,-702.3,961.767,91,29.5,45.1,0.409,737.5,2.1,1.050*
2018-08-28 02:36:00,-2.688E-01,4C000000*,-702.6,962.171,89,29.5,44.9,0.409,737.8,2.1,1.050*
2018-08-28 02:37:00,-2.455E-01,4C000000*,-703.0,961.767,90,29.6,45.0,0.408,737.8,2.1,1.050*
2018-08-28 02:38:00,-3.795E-01,4C000000*,-702.6,960.958,89,29.5,45.1,0.408,737.5,2.1,1.050*
2018-08-28 02:39:00,-2.516E-01,4C000000*,-702.6,962.171,90,29.5,44.9,0.408,737.8,2.1,1.050*
2018-08-28 02:40:00,-3.146E-01,4C000000*,-702.6,962.171,91,29.5,45.1,0.409,737.5,2.1,1.050*
2018-08-28 02:41:00,-2.202E-01,4C000000*,-702.6,961.362,90,29.5,44.9,0.409,737.8,2.1,1.050*
2018-08-28 02:42:00,-2.736E-01,4C000000*,-702.6,962.575,89,29.6,45.2,0.409,737.8,2.1,1.050*
2018-08-28 02:43:00,-2.294E-01,4C000000*,-702.6,961.362,90,29.5,44.9,0.408,737.5,2.1,1.050*
2018-08-28 02:44:00,-3.009E-01,4C000000*,-702.6,962.171,89,29.6,45.0,0.409,737.8,2.1,1.050*
2018-08-28 02:45:00,-2.527E-01,4C000000*,-702.3,961.767,89,29.6,45.0,0.408,737.5,2.1,1.050*
2018-08-28 02:46:00,-3.019E-01,4C000000*,-703.0,961.362,90,29.6,44.9,0.409,737.5,2.1,1.050*
2018-08-28 02:47:00,-3.145E-01,4C000000*,-702.3,962.171,91,29.6,45.1,0.408,737.5,2.1,1.050*
2018-08-28 02:48:00,-2.198E-01,4C000000*,-702.6,961.362,90,29.6,44.8,0.408,737.8,2.1,1.050*
2018-08-28 02:49:00,-3.509E-01,4C000000*,-702.6,961.767,90,29.6,45.2,0.408,737.5,2.1,1.050*
2018-08-28 02:50:00,-3.080E-01,4C000000*,-703.0,961.362,89,29.6,44.9,0.408,737.5,2.1,1.050*
2018-08-28 02:51:00,-2.520E-01,4C000000*,-702.6,961.362,88,29.6,45.1,0.408,737.5,2.1,1.050*
2018-08-28 02:52:00,-1.902E-01,4C000000*,-702.6,961.767,90,29.6,44.9,0.408,737.5,2.1,1.050*
2018-08-28 02:53:00,-3.785E-01,4C000000*,-702.6,961.767,90,29.7,45.0,0.408,737.8,2.1,1.050*
2018-08-28 02:54:00,-2.976E-01,4C000000*,-702.6,961.767,89,29.7,45.1,0.408,737.5,2.1,1.050*
2018-08-28 02:55:00,-2.889E-01,4C000000*,-702.6,963.384,90,29.7,44.9,0.409,737.5,2.1,1.050*
2018-08-28 02:56:00,-3.344E-01,4C000000*,-702.3,962.575,91,29.8,45.2,0.408,737.8,2.1,1.050*
2018-08-28 02:57:00,-3.112E-01,4C000000*,-703.0,961.767,90,29.7,44.8,0.409,737.5,2.1,1.050*
2018-08-28 02:58:00,-3.456E-01,4C000000*,-702.6,961.767,89,29.7,45.1,0.409,737.8,2.1,1.050*
2018-08-28 02:59:00,-3.520E-01,4C000000*,-702.3,961.767,90,29.7,44.9,0.408,737.5,2.1,1.050*
2018-08-28 03:00:00,-3.088E-01,4C000000*,-702.6,961.362,90,29.7,45.0,0.408,737.5,2.1,1.050*
2018-08-28 03:01:00,-2.970E-01,4C000000*,-702.6,961.362,90,29.6,45.1,0.408,737.5,2.1,1.050*
2018-08-28 03:02:00,-3.077E-01,4C000000*,-702.6,960.958,89,29.7,44.9,0.409,737.5,2.1,1.050*
2018-08-28 03:03:00,-3.363E-01,4C000000*,-702.6,961.767,91,29.7,45.1,0.408,737.5,2.1,1.050*
2018-08-28 03:04:00,-3.363E-01,4C000000*,-702.6,961.767,89,29.7,44.8,0.408,737.8,2.1,1.050*
2018-08-28 03:05:00,-3.409E-01,4C000000*,-703.0,962.171,90,29.8,45.1,0.408,737.5,2.1,1.050*
2018-08-28 03:06:00,-3.250E-01,4C000000*,-702.3,962.575,90,29.7,44.9,0.408,737.5,2.1,1.050*
2018-08-28 03:07:00,-2.931E-01,4C000000*,-702.6,962.575,90,29.7,45.0,0.408,737.5,2.1,1.050*
2018-08-28 03:08:00,-3.415E-01,4C000000*,-702.6,962.171,89,29.8,45.1,0.408,737.5,2.1,1.050*
2018-08-28 03:09:00,-2.163E-01,4C000000*,-703.0,961.362,90,29.8,44.9,0.408,737.5,2.1,1.050*
2018-08-28 03:10:00,-2.546E-01,4C000000*,-702.3,962.171,90,29.8,45.1,0.409,737.5,2.1,1.050*
2018-08-28 03:11:00,-3.127E-01,4C000000*,-702.6,962.171,91,29.7,44.8,0.409,737.8,2.1,1.050*
2018-08-28 03:12:00,-3.443E-01,4C000000*,-702.6,961.767,90,29.8,45.1,0.409,737.5,2.1,1.050*
2018-08-28 03:13:00,-2.757E-01,4C000000*,-702.6,962.575,90,29.8,44.9,0.408,737.5,2.1,1.050*
2018-08-28 03:14:00,-3.040E-01,4C000000*,-702.6,962.171,91,29.8,45.1,0.409,737.5,2.1,1.050*
2018-08-28 03:15:00,-3.465E-01,4C000000*,-702.6,962.575,90,29.9,45.0,0.409,737.5,2.1,1.050*
2018-08-28 03:16:00,-3.480E-01,4C000000*,-702.6,962.171,90,29.9,45.0,0.408,737.5,2.1,1.050*
2018-08-28 03:17:00,-3.839E-01,4C000000*,-702.6,961.767,89,29.8,45.1,0.408,737.5,2.1,1.050*
2018-08-28 03:18:00,-3.371E-01,4C000000*,-702.6,963.384,91,29.9,44.9,0.409,737.5,2.1,1.050*
2018-08-28 03:19:00,-3.010E-01,4C000000*,-702.6,962.979,90,29.8,45.2,0.409,737.5,2.1,1.050*
2018-08-28 03:20:00,-3.635E-01,4C000000*,-703.0,961.362,91,29.8,44.8,0.408,737.5,2.1,1.050*
2018-08-28 03:21:00,-3.151E-01,4C000000*,-702.6,962.575,90,29.9,45.1,0.408,737.5,2.1,1.050*
2018-08-28 03:22:00,-3.036E-01,4C000000*,-703.0,963.788,90,29.9,44.9,0.408,737.2,2.1,1.050*
2018-08-28 03:23:00,-2.913E-01,4C000000*,-702.6,962.171,90,29.9,45.0,0.409,737.5,2.1,1.050*
2018-08-28 03:24:00,-3.665E-01,4C000000*,-703.0,961.767,88,30.0,45.1,0.409,737.5,2.1,1.050*
2018-08-28 03:25:00,-4.079E-01,4C000000*,-702.6,960.958,89,29.9,44.9,0.408,737.5,2.1,1.050*
2018-08-28 03:26:00,-3.475E-01,4C000000*,-702.6,962.575,89,29.9,45.2,0.408,737.5,2.1,1.050*
2018-08-28 03:27:00,-3.571E-01,4C000000*,-703.0,961.767,88,29.9,44.9,0.408,737.5,2.1,1.050*
2018-08-28 03:28:00,-3.197E-01,4C000000*,-702.6,961.362,90,30.0,45.1,0.408,737.5,2.1,1.050*
2018-08-28 03:29:00,-2.876E-01,4C000000*,-702.6,961.767,89,30.0,44.9,0.408,737.2,2.1,1.050*
2018-08-28 03:30:00,-2.980E-01,4C000000*,-702.6,961.362,90,30.1,45.0,0.408,737.5,2.1,1.050*
2018-08-28 03:31:00,-3.436E-01,4C000000*,-702.6,961.767,91,30.1,45.2,0.408,737.5,2.1,1.050*
2018-08-28 03:32:00,-3.115E-01,4C000000*,-702.3,962.575,90,30.2,45.0,0.409,737.5,2.1,1.050*
2018-08-28 03:33:00,-3.069E-01,4C000000*,-702.6,962.171,90,30.1,45.1,0.408,737.5,2.1,1.050*
2018-08-28 03:34:00,-2.391E-01,4C000000*,-702.6,961.362,89,30.1,44.8,0.409,737.5,2.1,1.050*
2018-08-28 03:35:00,-2.973E-01,4C000000*,-702.6,961.362,90,30.2,45.1,0.409,737.5,2.1,1.050*
2018-08-28 03:36:00,-3.515E-01,4C000000*,-702.6,961.767,90,30.3,44.9,0.408,737.5,2.1,1.050*
2018-08-28 03:37:00,-2.861E-01,4C000000*,-702.3,962.979,90,30.5,45.1,0.408,737.5,2.1,1.050*
2018-08-28 03:38:00,-3.039E-01,4C000000*,-702.6,961.362,90,30.5,45.1,0.408,737.5,2.1,1.050*
2018-08-28 03:39:00,-3.112E-01,4C000000*,-702.6,962.171,90,30.6,45.0,0.408,737.5,2.1,1.050*
2018-08-28 03:40:00,-3.682E-01,4C000000*,-702.6,960.958,90,30.6,45.1,0.408,737.5,2.1,1.050*
2018-08-28 03:41:00,-2.988E-01,4C000000*,-702.6,961.767,88,30.5,44.9,0.408,737.5,2.1,1.050*
2018-08-28 03:42:00,-3.529E-01,4C000000*,-703.0,962.171,89,30.6,45.2,0.408,737.5,2.1,1.050*
2018-08-28 03:43:00,-2.408E-01,4C000000*,-703.0,960.958,89,30.6,44.9,0.408,737.5,2.1,1.050*
2018-08-28 03:44:00,-2.486E-01,4C000000*,-702.6,964.192,91,30.7,45.1,0.408,737.5,2.1,1.050*
2018-08-28 03:45:00,-3.637E-01,4C000000*,-702.3,961.767,90,30.7,45.0,0.408,737.5,2.1,1.050*
2018-08-28 03:46:00,-2.869E-01,4C000000*,-702.6,961.767,90,30.7,45.0,0.408,737.5,2.1,1.050*
2018-08-28 03:47:00,-2.990E-01,4C000000*,-702.6,960.958,90,30.7,45.0,0.408,737.2,2.1,1.050*
2018-08-28 03:48:00,-3.451E-01,4C000000*,-703.0,961.362,91,30.7,44.8,0.408,737.2,2.1,1.050*
2018-08-28 03:49:00,-4.026E-01,4C000000*,-703.0,961.362,90,30.7,45.2,0.408,737.2,2.1,1.050*
2018-08-28 03:50:00,-2.549E-01,4C000000*,-702.6,961.362,90,30.8,44.8,0.408,737.2,2.1,1.050*
2018-08-28 03:51:00,-2.948E-01,4C000000*,-702.6,961.362,89,30.8,45.1,0.409,737.5,2.1,1.050*
2018-08-28 03:52:00,-2.606E-01,4C000000*,-702.6,961.362,90,30.8,45.0,0.409,737.2,2.1,1.050*
2018-08-28 03:53:00,-2.818E-01,4C000000*,-702.6,961.767,89,30.8,45.0,0.408,737.2,2.1,1.050*
2018-08-28 03:54:00,-3.385E-01,4C000000*,-702.6,961.362,89,30.8,45.1,0.409,737.2,2.1,1.050*
2018-08-28 03:55:00,-2.821E-01,4C000000*,-702.6,961.362,89,30.8,44.9,0.409,737.2,2.1,1.050*
2018-08-28 03:56:00,-3.561E-01,4C000000*,-703.0,961.767,89,30.9,45.2,0.409,737.2,2.1,1.050*
2018-08-28 03:57:00,-2.346E-01,4C000000*,-702.6,961.362,90,30.8,44.9,0.408,737.5,2.1,1.050*
2018-08-28 03:58:00,-2.444E-01,4C000000*,-702.3,962.575,91,30.9,45.1,0.409,737.2,2.1,1.050*
2018-08-28 03:59:00,-2.972E-01,4C000000*,-702.6,961.767,91,30.9,44.9,0.409,737.2,2.1,1.050*
2018-08-28 04:00:00,-2.639E-01,4C000000*,-702.6,961.362,90,31.0,45.0,0.408,737.5,2.1,1.050*
2018-08-28 04:01:00,-3.295E-01,4C000000*,-702.6,962.171,89,31.0,45.1,0.408,737.2,2.1,1.050*
2018-08-28 04:02:00,-3.244E-01,4C000000*,-703.0,961.767,91,30.9,45.0,0.409,737.5,2.1,1.050*
2018-08-28 04:03:00,-2.961E-01,4C000000*,-702.6,961.767,89,31.0,45.1,0.408,737.2,2.1,1.050*
2018-08-28 04:04:00,-2.579E-01,4C000000*,-703.0,961.767,90,31.0,44.9,0.408,737.2,2.1,1.050*
2018-08-28 04:05:00,-3.512E-01,4C000000*,-702.3,961.362,90,31.0,45.1,0.409,737.2,2.1,1.050*
2018-08-28 04:06:00,-3.775E-01,4C000000*,-702.6,960.554,90,31.0,44.8,0.409,737.5,2.1,1.050*
2018-08-28 04:07:00,-2.160E-01,4C000000*,-702.6,960.150,90,31.0,45.0,0.409,737.2,2.1,1.050*
2018-08-28 04:08:00,-3.062E-01,4C000000*,-702.3,961.362,89,31.0,45.1,0.409,737.5,2.1,1.050*
2018-08-28 04:09:00,-3.146E-01,4C000000*,-702.6,960.958,91,31.0,45.0,0.409,737.5,2.1,1.050*
2018-08-28 04:10:00,-3.420E-01,4C000000*,-702.6,961.767,90,31.2,45.1,0.409,737.2,2.1,1.050*
2018-08-28 04:11:00,-2.925E-01,4C000000*,-702.6,960.958,90,31.1,44.8,0.409,737.2,2.1,1.050*
2018-08-28 04:12:00,-2.722E-01,4C000000*,-702.6,961.767,90,31.1,45.2,0.409,737.2,2.1,1.050*
2018-08-28 04:13:00,-3.335E-01,4C000000*,-702.6,961.767,90,31.1,44.8,0.409,737.2,2.1,1.050*
2018-08-28 04:14:00,-2.747E-01,4C000000*,-702.6,961.767,90,31.1,45.2,0.409,737.2,2.1,1.050*